status,avgMeasuredTime,avgSpeed,extID,medianMeasuredTime,TIMESTAMP,vehicleCount,_id,REPORT_ID
OK,79,52,984,79,2014-08-01T08:00:00,6,20747039,184675
OK,79,52,984,79,2014-08-01T08:10:00,2,20747861,184675
OK,84,49,984,84,2014-08-01T08:15:00,3,20748310,184675
OK,93,44,984,93,2014-08-01T08:20:00,3,20748759,184675
OK,88,47,984,88,2014-08-01T08:25:00,4,20749208,184675
OK,86,48,984,86,2014-08-01T08:30:00,8,20749657,184675
OK,107,38,984,107,2014-08-01T08:40:00,2,20750555,184675
OK,87,47,984,87,2014-08-01T08:50:00,5,20751453,184675
OK,62,66,984,62,2014-08-01T09:00:00,3,20752351,184675
OK,76,54,984,76,2014-08-01T09:05:00,2,20752800,184675
OK,81,51,984,81,2014-08-01T09:10:00,4,20753249,184675
OK,144,28,984,144,2014-08-01T09:20:00,2,20754147,184675
OK,99,41,984,99,2014-08-01T09:25:00,1,20754596,184675
OK,82,50,984,82,2014-08-01T09:30:00,3,20755045,184675
OK,75,55,984,75,2014-08-01T09:35:00,6,20755494,184675
OK,69,60,984,69,2014-08-01T09:40:00,5,20755943,184675
OK,58,71,984,58,2014-08-01T09:45:00,2,20756392,184675
OK,89,46,984,89,2014-08-01T09:50:00,2,20756841,184675
OK,123,33,984,123,2014-08-01T09:55:00,1,20757290,184675
OK,133,31,984,133,2014-08-01T10:00:00,1,20757739,184675
OK,104,39,984,104,2014-08-01T10:05:00,2,20758188,184675
OK,79,52,984,79,2014-08-01T10:15:00,5,20759086,184675
OK,79,52,984,79,2014-08-01T10:20:00,3,20759535,184675
OK,66,62,984,66,2014-08-01T10:25:00,4,20759984,184675
OK,68,60,984,68,2014-08-01T10:30:00,6,20760433,184675
OK,69,60,984,69,2014-08-01T10:35:00,3,20760882,184675
OK,88,47,984,88,2014-08-01T10:40:00,2,20761331,184675
OK,96,43,984,96,2014-08-01T10:50:00,5,20762229,184675
OK,95,43,984,95,2014-08-01T11:00:00,0,20763127,184675
OK,82,50,984,82,2014-08-01T11:10:00,6,20764025,184675
OK,74,56,984,74,2014-08-01T11:20:00,6,20764922,184675
OK,72,57,984,72,2014-08-01T11:25:00,4,20765371,184675
OK,72,57,984,72,2014-08-01T11:30:00,2,20765820,184675
OK,79,52,984,79,2014-08-01T11:35:00,3,20766269,184675
OK,83,49,984,83,2014-08-01T11:40:00,4,20766718,184675
OK,125,33,984,125,2014-08-01T11:45:00,3,20767167,184675
OK,96,43,984,96,2014-08-01T11:50:00,4,20767616,184675
OK,73,56,984,73,2014-08-01T11:55:00,2,20768065,184675
OK,94,44,984,94,2014-08-01T12:00:00,2,20768514,184675
OK,72,57,984,72,2014-08-01T12:10:00,3,20769412,184675
OK,86,48,984,86,2014-08-01T12:15:00,3,20769861,184675
OK,87,47,984,87,2014-08-01T12:20:00,6,20770310,184675
OK,83,49,984,83,2014-08-01T12:25:00,11,20770759,184675
OK,82,50,984,82,2014-08-01T12:30:00,8,20771208,184675
OK,82,50,984,82,2014-08-01T12:35:00,5,20771657,184675
OK,89,46,984,89,2014-08-01T12:40:00,2,20772106,184675
OK,90,46,984,90,2014-08-01T12:45:00,3,20772555,184675
OK,91,45,984,91,2014-08-01T12:50:00,2,20773004,184675
OK,79,52,984,79,2014-08-01T12:55:00,4,20773453,184675
OK,87,47,984,87,2014-08-01T13:00:00,5,20773902,184675
OK,105,39,984,105,2014-08-01T13:05:00,6,20774351,184675
OK,91,45,984,91,2014-08-01T13:10:00,9,20774800,184675
OK,87,47,984,87,2014-08-01T13:15:00,7,20775249,184675
OK,87,47,984,87,2014-08-01T13:20:00,7,20775698,184675
OK,95,43,984,95,2014-08-01T13:25:00,4,20776147,184675
OK,94,44,984,94,2014-08-01T13:30:00,2,20776596,184675
OK,92,45,984,92,2014-08-01T13:35:00,4,20777045,184675
OK,91,45,984,91,2014-08-01T13:40:00,6,20777494,184675
OK,114,36,984,114,2014-08-01T13:45:00,2,20777943,184675
OK,100,41,984,100,2014-08-01T13:50:00,3,20778392,184675
OK,84,49,984,84,2014-08-01T14:00:00,4,20779290,184675
OK,82,50,984,82,2014-08-01T14:05:00,6,20779739,184675
OK,82,50,984,82,2014-08-01T14:10:00,3,20780188,184675
OK,82,50,984,82,2014-08-01T14:15:00,3,20780637,184675
OK,83,49,984,83,2014-08-01T14:20:00,4,20781086,184675
OK,90,46,984,90,2014-08-01T14:25:00,4,20781535,184675
OK,105,39,984,105,2014-08-01T14:30:00,2,20781984,184675
OK,122,33,984,122,2014-08-01T14:35:00,1,20782433,184675
OK,85,48,984,85,2014-08-01T14:40:00,3,20782882,184675
OK,81,51,984,81,2014-08-01T14:45:00,2,20783331,184675
OK,92,45,984,92,2014-08-01T14:50:00,2,20783780,184675
OK,72,57,984,72,2014-08-01T15:00:00,3,20784678,184675
OK,98,42,984,98,2014-08-01T15:05:00,3,20785127,184675
OK,67,61,984,67,2014-08-01T15:10:00,2,20785576,184675
OK,96,43,984,96,2014-08-01T15:15:00,2,20786025,184675
OK,106,39,984,106,2014-08-01T15:20:00,0,20786474,184675
OK,102,40,984,102,2014-08-01T15:25:00,1,20786923,184675
OK,84,49,984,84,2014-08-01T15:30:00,2,20787372,184675
OK,76,54,984,76,2014-08-01T15:35:00,2,20787821,184675
OK,86,48,984,86,2014-08-01T15:40:00,1,20788270,184675
OK,107,38,984,107,2014-08-01T15:45:00,2,20788719,184675
OK,94,44,984,94,2014-08-01T15:50:00,5,20789168,184675
OK,90,46,984,90,2014-08-01T15:55:00,2,20789617,184675
OK,116,35,984,116,2014-08-01T16:00:00,1,20790066,184675
OK,81,51,984,81,2014-08-01T16:05:00,3,20790515,184675
OK,72,57,984,72,2014-08-01T16:10:00,4,20790964,184675
OK,64,64,984,64,2014-08-01T16:15:00,4,20791413,184675
OK,68,60,984,68,2014-08-01T16:20:00,3,20791862,184675
OK,68,60,984,68,2014-08-01T16:25:00,1,20792311,184675
OK,65,63,984,65,2014-08-01T16:30:00,0,20792760,184675
OK,65,63,984,65,2014-08-01T16:35:00,0,20793209,184675
OK,102,40,984,102,2014-08-01T16:40:00,1,20793658,184675
OK,85,48,984,85,2014-08-01T16:45:00,3,20794107,184675
OK,85,48,984,85,2014-08-01T16:50:00,3,20794556,184675
OK,92,45,984,92,2014-08-01T16:55:00,2,20795005,184675
OK,72,57,984,72,2014-08-01T17:00:00,2,20795454,184675
OK,85,48,984,85,2014-08-01T17:05:00,4,20795903,184675
OK,85,48,984,85,2014-08-01T17:10:00,2,20796352,184675
OK,100,41,984,100,2014-08-01T17:15:00,1,20796801,184675
OK,78,53,984,78,2014-08-01T17:20:00,2,20797250,184675
OK,56,74,984,56,2014-08-01T17:25:00,1,20797699,184675
OK,98,42,984,98,2014-08-01T17:30:00,2,20798148,184675
OK,154,26,984,154,2014-08-01T17:35:00,2,20798597,184675
OK,209,19,984,209,2014-08-01T17:40:00,0,20799046,184675
OK,209,19,984,209,2014-08-01T17:45:00,0,20799495,184675
OK,92,45,984,92,2014-08-01T17:50:00,4,20799944,184675
OK,86,48,984,86,2014-08-01T17:55:00,4,20800393,184675
OK,68,60,984,68,2014-08-01T18:00:00,1,20800842,184675
OK,72,57,984,72,2014-08-01T18:05:00,1,20801291,184675
OK,72,57,984,72,2014-08-01T18:10:00,0,20801740,184675
OK,47,88,984,47,2014-08-01T18:15:00,1,20802189,184675
OK,47,88,984,47,2014-08-01T18:20:00,1,20802638,184675
OK,47,88,984,47,2014-08-01T18:25:00,0,20803087,184675
OK,47,88,984,47,2014-08-01T18:30:00,0,20803536,184675
OK,99,41,984,99,2014-08-01T18:35:00,2,20803985,184675
OK,99,41,984,99,2014-08-01T18:40:00,2,20804434,184675
OK,67,61,984,67,2014-08-01T18:45:00,1,20804883,184675
OK,80,51,984,80,2014-08-01T18:50:00,1,20805332,184675
OK,80,51,984,80,2014-08-01T18:55:00,1,20805781,184675
OK,80,51,984,80,2014-08-01T19:00:00,0,20806230,184675
OK,80,51,984,80,2014-08-01T19:05:00,0,20806679,184675
OK,80,51,984,80,2014-08-01T19:10:00,0,20807128,184675
OK,84,49,984,84,2014-08-01T19:15:00,1,20807577,184675
OK,84,49,984,84,2014-08-01T19:20:00,0,20808026,184675
OK,84,49,984,84,2014-08-01T19:25:00,0,20808475,184675
OK,84,49,984,84,2014-08-01T19:30:00,0,20808924,184675
OK,68,60,984,68,2014-08-01T19:35:00,1,20809373,184675
OK,68,60,984,68,2014-08-01T19:40:00,0,20809822,184675
OK,68,60,984,68,2014-08-01T19:45:00,0,20810271,184675
OK,68,60,984,68,2014-08-01T19:50:00,0,20810720,184675
OK,68,60,984,68,2014-08-01T19:55:00,0,20811169,184675
OK,68,60,984,68,2014-08-01T22:00:00,0,20816898,184675
OK,68,60,984,68,2014-08-02T00:00:00,0,20823337,184675
OK,68,60,984,68,2014-08-02T00:05:00,0,20823786,184675
OK,68,60,984,68,2014-08-02T00:10:00,0,20824235,184675
OK,68,60,984,68,2014-08-02T00:15:00,0,20824684,184675
OK,68,60,984,68,2014-08-02T00:20:00,0,20825133,184675
OK,68,60,984,68,2014-08-02T00:25:00,0,20825582,184675
OK,68,60,984,68,2014-08-02T00:30:00,0,20826031,184675
OK,68,60,984,68,2014-08-02T00:35:00,0,20826480,184675
OK,68,60,984,68,2014-08-02T00:40:00,0,20826929,184675
OK,68,60,984,68,2014-08-02T00:45:00,0,20827378,184675
OK,68,60,984,68,2014-08-02T00:50:00,0,20827827,184675
OK,53,78,984,53,2014-08-02T00:55:00,1,20828276,184675
OK,53,78,984,53,2014-08-02T01:00:00,1,20828725,184675
OK,53,78,984,53,2014-08-02T01:05:00,0,20829174,184675
OK,53,78,984,53,2014-08-02T01:10:00,0,20829623,184675
OK,53,78,984,53,2014-08-02T01:15:00,0,20830072,184675
OK,53,78,984,53,2014-08-02T01:20:00,0,20830521,184675
OK,53,78,984,53,2014-08-02T01:25:00,0,20830970,184675
OK,54,76,984,54,2014-08-02T01:30:00,1,20831419,184675
OK,54,76,984,54,2014-08-02T01:35:00,1,20831868,184675
OK,54,76,984,54,2014-08-02T01:40:00,0,20832317,184675
OK,54,76,984,54,2014-08-02T01:45:00,0,20832766,184675
OK,54,76,984,54,2014-08-02T01:50:00,0,20833215,184675
OK,54,76,984,54,2014-08-02T01:55:00,0,20833664,184675
OK,72,57,984,72,2014-08-02T02:00:00,1,20834113,184675
OK,72,57,984,72,2014-08-02T02:05:00,1,20834562,184675
OK,49,84,984,49,2014-08-02T02:10:00,1,20835011,184675
OK,72,57,984,72,2014-08-02T02:15:00,0,20835460,184675
OK,72,57,984,72,2014-08-02T02:20:00,0,20835909,184675
OK,55,75,984,55,2014-08-02T02:25:00,0,20836358,184675
OK,64,64,984,64,2014-08-02T02:30:00,1,20836807,184675
OK,64,64,984,64,2014-08-02T02:35:00,0,20837256,184675
OK,64,64,984,64,2014-08-02T02:40:00,0,20837705,184675
OK,64,64,984,64,2014-08-02T02:45:00,0,20838154,184675
OK,64,64,984,64,2014-08-02T02:50:00,0,20838603,184675
OK,64,64,984,64,2014-08-02T02:55:00,0,20839052,184675
OK,64,64,984,64,2014-08-02T03:00:00,0,20839501,184675
OK,64,64,984,64,2014-08-02T03:05:00,0,20839950,184675
OK,64,64,984,64,2014-08-02T03:10:00,0,20840399,184675
OK,64,64,984,64,2014-08-02T03:15:00,0,20840848,184675
OK,64,64,984,64,2014-08-02T03:20:00,0,20841297,184675
OK,64,64,984,64,2014-08-02T03:25:00,0,20841746,184675
OK,64,64,984,64,2014-08-02T03:30:00,0,20842195,184675
OK,64,64,984,64,2014-08-02T03:35:00,0,20842644,184675
OK,64,64,984,64,2014-08-02T03:40:00,0,20843093,184675
OK,64,64,984,64,2014-08-02T03:45:00,0,20843542,184675
OK,64,64,984,64,2014-08-02T03:50:00,0,20843991,184675
OK,64,64,984,64,2014-08-02T03:55:00,0,20844440,184675
OK,64,64,984,64,2014-08-02T06:00:00,0,20851894,184675
OK,64,64,984,64,2014-08-02T06:05:00,0,20852343,184675
OK,64,64,984,64,2014-08-02T06:10:00,0,20852792,184675
OK,64,64,984,64,2014-08-02T06:15:00,0,20853241,184675
OK,64,64,984,64,2014-08-02T06:20:00,0,20853690,184675
OK,87,47,984,87,2014-08-02T06:25:00,1,20854139,184675
OK,81,51,984,81,2014-08-02T06:30:00,2,20854588,184675
OK,75,55,984,75,2014-08-02T06:35:00,1,20855037,184675
OK,60,69,984,60,2014-08-02T06:40:00,1,20855486,184675
OK,70,59,984,70,2014-08-02T06:45:00,3,20855935,184675
OK,78,53,984,78,2014-08-02T06:50:00,2,20856384,184675
OK,86,48,984,86,2014-08-02T06:55:00,0,20856833,184675
OK,86,48,984,86,2014-08-02T07:00:00,0,20857282,184675
OK,86,48,984,86,2014-08-02T07:05:00,0,20857731,184675
OK,86,48,984,86,2014-08-02T07:10:00,0,20858180,184675
OK,86,48,984,86,2014-08-02T07:15:00,0,20858629,184675
OK,83,49,984,83,2014-08-02T07:20:00,2,20859078,184675
OK,81,51,984,81,2014-08-02T07:25:00,3,20859527,184675
OK,65,63,984,65,2014-08-02T07:30:00,1,20859976,184675
OK,60,69,984,60,2014-08-02T07:35:00,3,20860425,184675
OK,63,65,984,63,2014-08-02T07:40:00,4,20860874,184675
OK,69,60,984,69,2014-08-02T07:45:00,2,20861323,184675
OK,72,57,984,72,2014-08-02T07:50:00,0,20861772,184675
OK,72,57,984,72,2014-08-02T07:55:00,0,20862221,184675
OK,72,57,984,72,2014-08-02T08:00:00,0,20862670,184675
OK,72,57,984,72,2014-08-02T08:05:00,0,20863119,184675
OK,79,52,984,79,2014-08-02T08:10:00,2,20863568,184675
OK,83,49,984,83,2014-08-02T08:15:00,1,20864017,184675
OK,83,49,984,83,2014-08-02T08:20:00,0,20864466,184675
OK,78,53,984,78,2014-08-02T08:25:00,2,20864915,184675
OK,86,48,984,86,2014-08-02T08:30:00,2,20865364,184675
OK,90,46,984,90,2014-08-02T08:35:00,4,20865813,184675
OK,82,50,984,82,2014-08-02T08:40:00,2,20866262,184675
OK,92,45,984,92,2014-08-02T08:45:00,5,20866711,184675
OK,91,45,984,91,2014-08-02T08:50:00,4,20867160,184675
OK,72,57,984,72,2014-08-02T08:55:00,3,20867609,184675
OK,69,60,984,69,2014-08-02T09:00:00,2,20868058,184675
OK,74,56,984,74,2014-08-02T09:05:00,1,20868507,184675
OK,81,51,984,81,2014-08-02T09:10:00,1,20868956,184675
OK,70,59,984,70,2014-08-02T09:15:00,2,20869405,184675
OK,87,47,984,87,2014-08-02T09:20:00,5,20869854,184675
OK,89,46,984,89,2014-08-02T09:25:00,3,20870303,184675
OK,76,54,984,76,2014-08-02T09:30:00,1,20870752,184675
OK,76,54,984,76,2014-08-02T09:35:00,1,20871201,184675
OK,99,41,984,99,2014-08-02T09:40:00,4,20871650,184675
OK,84,49,984,84,2014-08-02T09:45:00,7,20872099,184675
OK,71,58,984,71,2014-08-02T09:50:00,6,20872548,184675
OK,94,44,984,94,2014-08-02T09:55:00,1,20872997,184675
OK,134,30,984,134,2014-08-02T10:00:00,1,20873446,184675
OK,95,43,984,95,2014-08-02T10:05:00,2,20873895,184675
OK,90,46,984,90,2014-08-02T10:10:00,3,20874344,184675
OK,87,47,984,87,2014-08-02T10:15:00,6,20874793,184675
OK,84,49,984,84,2014-08-02T10:20:00,3,20875242,184675
OK,92,45,984,92,2014-08-02T10:25:00,3,20875691,184675
OK,100,41,984,100,2014-08-02T10:30:00,3,20876140,184675
OK,95,43,984,95,2014-08-02T10:35:00,3,20876589,184675
OK,86,48,984,86,2014-08-02T10:40:00,1,20877038,184675
OK,82,50,984,82,2014-08-02T10:45:00,1,20877487,184675
OK,82,50,984,82,2014-08-02T10:50:00,1,20877936,184675
OK,89,46,984,89,2014-08-02T10:55:00,1,20878385,184675
OK,82,50,984,82,2014-08-02T11:00:00,2,20878834,184675
OK,78,53,984,78,2014-08-02T11:05:00,2,20879283,184675
OK,93,44,984,93,2014-08-02T11:10:00,4,20879732,184675
OK,103,40,984,103,2014-08-02T11:15:00,5,20880181,184675
OK,88,47,984,88,2014-08-02T11:20:00,4,20880630,184675
OK,88,47,984,88,2014-08-02T11:25:00,2,20881079,184675
OK,89,46,984,89,2014-08-02T11:30:00,1,20881528,184675
OK,89,46,984,89,2014-08-02T11:35:00,1,20881977,184675
OK,89,46,984,89,2014-08-02T11:40:00,0,20882426,184675
OK,69,60,984,69,2014-08-02T11:45:00,3,20882875,184675
OK,65,63,984,65,2014-08-02T11:50:00,2,20883324,184675
OK,85,48,984,85,2014-08-02T11:55:00,1,20883773,184675
OK,101,41,984,101,2014-08-02T12:00:00,4,20884222,184675
OK,88,47,984,88,2014-08-02T12:05:00,3,20884671,184675
OK,58,71,984,58,2014-08-02T12:10:00,1,20885120,184675
OK,60,69,984,60,2014-08-02T12:15:00,1,20885569,184675
OK,60,69,984,60,2014-08-02T12:20:00,1,20886018,184675
OK,78,53,984,78,2014-08-02T12:25:00,1,20886467,184675
OK,78,53,984,78,2014-08-02T12:30:00,1,20886916,184675
OK,78,53,984,78,2014-08-02T12:35:00,0,20887365,184675
OK,66,62,984,66,2014-08-02T12:40:00,2,20887814,184675
OK,59,70,984,59,2014-08-02T12:45:00,2,20888263,184675
OK,65,63,984,65,2014-08-02T12:50:00,2,20888712,184675
OK,65,63,984,65,2014-08-02T12:55:00,2,20889161,184675
OK,84,49,984,84,2014-08-02T13:00:00,2,20889610,184675
OK,74,56,984,74,2014-08-02T13:05:00,2,20890059,184675
OK,80,51,984,80,2014-08-02T13:10:00,4,20890508,184675
OK,87,47,984,87,2014-08-02T13:15:00,4,20890957,184675
OK,85,48,984,85,2014-08-02T13:20:00,3,20891406,184675
OK,77,53,984,77,2014-08-02T13:25:00,1,20891855,184675
OK,77,53,984,77,2014-08-02T13:30:00,0,20892304,184675
OK,69,60,984,69,2014-08-02T13:35:00,3,20892753,184675
OK,69,60,984,69,2014-08-02T13:40:00,3,20893202,184675
OK,71,58,984,71,2014-08-02T13:45:00,2,20893651,184675
OK,72,57,984,72,2014-08-02T13:50:00,3,20894100,184675
OK,69,60,984,69,2014-08-02T13:55:00,1,20894549,184675
OK,69,60,984,69,2014-08-02T14:00:00,1,20894998,184675
OK,74,56,984,74,2014-08-02T14:05:00,3,20895447,184675
OK,84,49,984,84,2014-08-02T14:10:00,1,20895896,184675
OK,77,53,984,77,2014-08-02T14:15:00,1,20896345,184675
OK,84,49,984,84,2014-08-02T14:20:00,2,20896794,184675
OK,84,49,984,84,2014-08-02T14:25:00,2,20897243,184675
OK,72,57,984,72,2014-08-02T14:30:00,1,20897692,184675
OK,72,57,984,72,2014-08-02T14:35:00,1,20898141,184675
OK,81,51,984,81,2014-08-02T14:40:00,2,20898590,184675
OK,81,51,984,81,2014-08-02T14:45:00,2,20899039,184675
OK,79,52,984,79,2014-08-02T14:50:00,1,20899488,184675
OK,79,52,984,79,2014-08-02T14:55:00,3,20899937,184675
OK,107,38,984,107,2014-08-02T15:00:00,3,20900386,184675
OK,107,38,984,107,2014-08-02T15:05:00,1,20900835,184675
OK,107,38,984,107,2014-08-02T15:10:00,0,20901284,184675
OK,69,60,984,69,2014-08-02T15:15:00,1,20901733,184675
OK,69,60,984,69,2014-08-02T15:20:00,1,20902182,184675
OK,101,41,984,101,2014-08-02T15:25:00,1,20902631,184675
OK,84,49,984,84,2014-08-02T15:30:00,3,20903080,184675
OK,83,49,984,83,2014-08-02T15:35:00,0,20903529,184675
OK,93,44,984,93,2014-08-02T15:40:00,2,20903978,184675
OK,84,49,984,84,2014-08-02T15:45:00,1,20904427,184675
OK,84,49,984,84,2014-08-02T15:50:00,0,20904876,184675
OK,84,49,984,84,2014-08-02T15:55:00,0,20905325,184675
OK,92,45,984,92,2014-08-02T16:00:00,1,20905774,184675
OK,85,48,984,85,2014-08-02T16:05:00,2,20906223,184675
OK,85,48,984,85,2014-08-02T16:10:00,1,20906672,184675
OK,75,55,984,75,2014-08-02T16:15:00,2,20907121,184675
OK,71,58,984,71,2014-08-02T16:20:00,2,20907570,184675
OK,71,58,984,71,2014-08-02T16:25:00,2,20908019,184675
OK,71,58,984,71,2014-08-02T16:30:00,0,20908468,184675
OK,58,71,984,58,2014-08-02T16:35:00,1,20908917,184675
OK,58,71,984,58,2014-08-02T16:40:00,1,20909366,184675
OK,58,71,984,58,2014-08-02T16:45:00,0,20909815,184675
OK,64,64,984,64,2014-08-02T16:50:00,1,20910264,184675
OK,64,64,984,64,2014-08-02T16:55:00,1,20910713,184675
OK,77,53,984,77,2014-08-02T17:00:00,1,20911162,184675
OK,77,53,984,77,2014-08-02T17:05:00,0,20911611,184675
OK,77,53,984,77,2014-08-02T17:10:00,0,20912060,184675
OK,77,53,984,77,2014-08-02T17:15:00,0,20912509,184675
OK,77,53,984,77,2014-08-02T17:20:00,0,20912958,184675
OK,77,53,984,77,2014-08-02T17:25:00,0,20913407,184675
OK,76,54,984,76,2014-08-02T17:30:00,1,20913856,184675
OK,65,63,984,65,2014-08-02T17:35:00,3,20914305,184675
OK,65,63,984,65,2014-08-02T17:40:00,0,20914754,184675
OK,72,57,984,72,2014-08-02T17:45:00,2,20915203,184675
OK,72,57,984,72,2014-08-02T17:50:00,1,20915652,184675
OK,72,57,984,72,2014-08-02T17:55:00,1,20916101,184675
OK,72,57,984,72,2014-08-02T18:00:00,0,20916550,184675
OK,72,57,984,72,2014-08-02T18:05:00,0,20916999,184675
OK,66,62,984,66,2014-08-02T18:10:00,1,20917448,184675
OK,66,62,984,66,2014-08-02T18:15:00,1,20917897,184675
OK,66,62,984,66,2014-08-02T18:20:00,0,20918346,184675
OK,66,62,984,66,2014-08-02T18:25:00,0,20918795,184675
OK,64,64,984,64,2014-08-02T18:30:00,1,20919244,184675
OK,64,64,984,64,2014-08-02T18:35:00,0,20919693,184675
OK,105,39,984,105,2014-08-02T18:40:00,1,20920142,184675
OK,105,39,984,105,2014-08-02T18:45:00,1,20920591,184675
OK,111,37,984,111,2014-08-02T18:50:00,1,20921040,184675
OK,111,37,984,111,2014-08-02T18:55:00,0,20921489,184675
OK,111,37,984,111,2014-08-02T19:00:00,0,20921938,184675
OK,90,46,984,90,2014-08-02T19:05:00,1,20922387,184675
OK,90,46,984,90,2014-08-02T19:10:00,0,20922836,184675
OK,90,46,984,90,2014-08-02T19:15:00,0,20923285,184675
OK,90,46,984,90,2014-08-02T19:20:00,0,20923734,184675
OK,90,46,984,90,2014-08-02T19:25:00,0,20924183,184675
OK,90,46,984,90,2014-08-02T19:30:00,0,20924632,184675
OK,82,50,984,82,2014-08-02T19:35:00,0,20925081,184675
OK,82,50,984,82,2014-08-02T19:40:00,0,20925530,184675
OK,90,46,984,90,2014-08-02T19:45:00,1,20925979,184675
OK,90,46,984,90,2014-08-02T19:50:00,1,20926428,184675
OK,90,46,984,90,2014-08-02T19:55:00,0,20926877,184675
OK,59,70,984,59,2014-08-02T20:00:00,1,20927326,184675
OK,59,70,984,59,2014-08-02T20:05:00,1,20927775,184675
OK,59,70,984,59,2014-08-02T20:10:00,0,20928224,184675
OK,59,70,984,59,2014-08-02T20:15:00,0,20928673,184675
OK,59,70,984,59,2014-08-02T20:20:00,0,20929122,184675
OK,59,70,984,59,2014-08-02T20:25:00,0,20929571,184675
OK,59,70,984,59,2014-08-02T20:30:00,0,20930020,184675
OK,67,61,984,67,2014-08-02T20:35:00,1,20930469,184675
OK,67,61,984,67,2014-08-02T20:40:00,1,20930918,184675
OK,43,96,984,43,2014-08-02T20:45:00,1,20931367,184675
OK,43,96,984,43,2014-08-02T20:50:00,1,20931816,184675
OK,43,96,984,43,2014-08-02T20:55:00,0,20932265,184675
OK,77,53,984,77,2014-08-02T21:00:00,1,20932714,184675
OK,77,53,984,77,2014-08-02T21:05:00,1,20933163,184675
OK,58,71,984,58,2014-08-02T21:10:00,1,20933612,184675
OK,62,66,984,62,2014-08-02T21:15:00,3,20934061,184675
OK,64,64,984,64,2014-08-02T21:20:00,0,20934510,184675
OK,61,67,984,61,2014-08-02T21:25:00,1,20934959,184675
OK,61,67,984,61,2014-08-02T21:30:00,0,20935408,184675
OK,61,67,984,61,2014-08-02T21:35:00,0,20935857,184675
OK,61,67,984,61,2014-08-02T21:40:00,0,20936306,184675
OK,61,67,984,61,2014-08-02T21:45:00,0,20936755,184675
OK,55,75,984,55,2014-08-02T21:50:00,2,20937204,184675
OK,55,75,984,55,2014-08-02T21:55:00,2,20937653,184675
OK,53,78,984,53,2014-08-02T22:00:00,0,20938102,184675
OK,53,78,984,53,2014-08-02T22:05:00,0,20938551,184675
OK,53,78,984,53,2014-08-02T22:10:00,0,20939000,184675
OK,53,78,984,53,2014-08-02T22:15:00,0,20939449,184675
OK,53,78,984,53,2014-08-02T22:20:00,0,20939898,184675
OK,53,78,984,53,2014-08-02T22:25:00,0,20940347,184675
OK,53,78,984,53,2014-08-02T22:30:00,0,20940796,184675
OK,53,78,984,53,2014-08-02T22:35:00,0,20941245,184675
OK,53,78,984,53,2014-08-02T22:40:00,0,20941694,184675
OK,46,90,984,46,2014-08-02T22:45:00,1,20942143,184675
OK,46,90,984,46,2014-08-02T22:50:00,1,20942592,184675
OK,56,74,984,56,2014-08-02T22:55:00,1,20943041,184675
OK,56,74,984,56,2014-08-02T23:00:00,1,20943490,184675
OK,56,74,984,56,2014-08-02T23:10:00,0,20943939,184675
OK,56,74,984,56,2014-08-02T23:15:00,0,20944388,184675
OK,56,74,984,56,2014-08-02T23:20:00,0,20944837,184675
OK,56,74,984,56,2014-08-02T23:25:00,0,20945286,184675
OK,53,78,984,53,2014-08-02T23:30:00,2,20945735,184675
OK,59,70,984,59,2014-08-02T23:35:00,1,20946184,184675
OK,59,70,984,59,2014-08-02T23:40:00,0,20946633,184675
OK,59,70,984,59,2014-08-02T23:45:00,0,20947082,184675
OK,59,70,984,59,2014-08-02T23:50:00,0,20947531,184675
OK,59,70,984,59,2014-08-02T23:55:00,0,20947980,184675
OK,59,70,984,59,2014-08-03T00:00:00,0,20948429,184675
OK,59,70,984,59,2014-08-03T00:05:00,0,20948878,184675
OK,59,70,984,59,2014-08-03T00:10:00,0,20949326,184675
OK,59,70,984,59,2014-08-03T00:15:00,0,20949775,184675
OK,59,70,984,59,2014-08-03T00:20:00,0,20950224,184675
OK,59,70,984,59,2014-08-03T00:25:00,0,20950673,184675
OK,59,70,984,59,2014-08-03T00:30:00,0,20951122,184675
OK,59,70,984,59,2014-08-03T00:35:00,0,20951571,184675
OK,48,86,984,48,2014-08-03T00:40:00,1,20952020,184675
OK,48,86,984,48,2014-08-03T00:45:00,0,20952469,184675
OK,48,86,984,48,2014-08-03T00:50:00,0,20952918,184675
OK,67,61,984,67,2014-08-03T00:55:00,1,20953367,184675
OK,55,75,984,55,2014-08-03T01:00:00,1,20953816,184675
OK,55,75,984,55,2014-08-03T01:05:00,1,20954265,184675
OK,55,75,984,55,2014-08-03T01:10:00,0,20954714,184675
OK,55,75,984,55,2014-08-03T01:15:00,0,20955163,184675
OK,55,75,984,55,2014-08-03T01:20:00,0,20955612,184675
OK,55,75,984,55,2014-08-03T01:25:00,0,20956061,184675
OK,55,75,984,55,2014-08-03T01:30:00,0,20956510,184675
OK,61,67,984,61,2014-08-03T01:35:00,1,20956959,184675
OK,61,67,984,61,2014-08-03T01:40:00,1,20957408,184675
OK,61,67,984,61,2014-08-03T01:45:00,0,20957857,184675
OK,61,67,984,61,2014-08-03T01:50:00,0,20958306,184675
OK,61,67,984,61,2014-08-03T01:55:00,0,20958755,184675
OK,61,67,984,61,2014-08-03T02:00:00,0,20959204,184675
OK,61,67,984,61,2014-08-03T02:05:00,0,20959653,184675
OK,61,67,984,61,2014-08-03T02:10:00,0,20960102,184675
OK,68,60,984,68,2014-08-03T02:15:00,2,20960551,184675
OK,62,66,984,62,2014-08-03T02:20:00,3,20961000,184675
OK,48,86,984,48,2014-08-03T02:25:00,2,20961449,184675
OK,35,118,984,35,2014-08-03T02:30:00,0,20961898,184675
OK,35,118,984,35,2014-08-03T02:35:00,0,20962347,184675
OK,35,118,984,35,2014-08-03T02:40:00,0,20962796,184675
OK,46,90,984,46,2014-08-03T02:45:00,1,20963245,184675
OK,46,90,984,46,2014-08-03T02:50:00,1,20963694,184675
OK,46,90,984,46,2014-08-03T02:55:00,0,20964143,184675
OK,59,70,984,59,2014-08-03T03:00:00,1,20964592,184675
OK,59,70,984,59,2014-08-03T03:05:00,0,20965041,184675